Location: Colossi of Memnon
(25.7167°N, 32.6167°E)
Time: 10:26:08
(UTC+00:00)

Skynet4D Del rocket - Pass Details

Date: 05 March 2021
Orbit: 763 x 1291 km, 26.9° (Epoch: 22 April)

Event Time Altitude Azimuth Distance (km) Brightness Sun altitude
Exits shadow 02:31:18 55° 244° (WSW) 919 3.5 -22.8°
Maximum altitude 02:32:31 80° 168° (SSE) 775 3.4 -22.5°
Drops below altitude 10° 02:37:51 10° 82° (E) 2,291 7.1 -21.3°
Sets 02:40:20 0° 81° (E) 3,239 8.3 -20.8°
